FW7111 Weather Reports


time (UTC)temp
C
wind
direction
speed
KPH
gust
KPH
rain 1hr
cm
rain 24hr
cm
rain mn
cm
humidity
%
barometer
mb
20260503010026 10 38 0.0 0.0 0.00 0.18 0.18 95 1012.7
20260503005526 10 38 0.0 0.0 0.00 0.18 0.18 95 1012.7
20260503005030 10 38 0.0 0.0 0.00 0.18 0.18 95 1012.5
20260503004526 11 38 0.0 0.0 0.00 0.18 0.18 94 1012.4
20260503003527 11 38 0.0 0.0 0.00 0.18 0.18 94 1012.3
20260503003026 11 38 0.0 0.0 0.00 0.18 0.18 93 1012.2
20260503002526 11 38 0.0 0.0 0.00 0.18 0.18 93 1012.3
20260503001526 11 38 0.0 0.0 0.00 0.18 0.18 92 1012.1
20260503001051 11 38 0.0 0.0 0.00 0.18 0.18 91 1011.8
20260503000527 12 38 0.0 0.0 0.00 0.18 0.18 91 1011.8
20260503000028 12 38 0.0 0.0 0.00 0.18 0.18 90 1011.7
20260502235526 12 38 0.0 0.0 0.00 0.18 0.18 91 1011.6
20260502234526 12 38 0.0 0.0 0.00 0.18 0.18 90 1011.5
20260502233526 12 38 0.0 0.0 0.00 0.18 0.18 91 1011.6
20260502233026 12 38 0.0 0.0 0.00 0.18 0.18 91 1011.6
20260502232526 12 38 0.0 0.0 0.00 0.18 0.18 90 1011.6
20260502231525 12 39 0.0 0.0 0.00 0.18 0.18 89 1011.5
20260502231025 12 39 0.0 0.0 0.00 0.18 0.18 89 1011.3
20260502230525 12 39 0.0 0.0 0.00 0.18 0.18 89 1011.3
20260502225525 12 39 0.0 0.0 0.00 0.18 0.18 89 1011.4
20260502225026 12 39 0.0 0.0 0.00 0.18 0.18 89 1011.3
20260502224526 12 39 0.0 0.0 0.00 0.18 0.18 88 1011.3
20260502224025 12 39 0.0 0.0 0.00 0.18 0.18 87 1011.3
20260502223525 12 39 0.0 0.0 0.00 0.18 0.18 87 1011.3
20260502223035 12 39 0.0 0.0 0.00 0.18 0.18 87 1011.4
20260502222525 12 38 0.0 0.0 0.00 0.18 0.18 88 1011.3
20260502222025 12 40 0.0 0.0 0.00 0.18 0.18 88 1011.4
20260502221525 12 42 0.0 0.0 0.00 0.18 0.18 88 1011.4
20260502221032 12 38 0.0 1.6 0.00 0.18 0.18 87 1011.2
20260502220525 12 38 0.0 0.0 0.00 0.18 0.18 88 1011.1
20260502220026 12 38 0.0 1.6 0.00 0.18 0.18 86 1011.0
20260502215525 13 38 0.0 0.0 0.00 0.18 0.18 85 1011.0
20260502215030 13 41 0.0 0.0 0.00 0.18 0.18 84 1011.0
20260502214526 13 50 0.0 0.0 0.00 0.18 0.18 84 1011.0
20260502214026 13 54 0.0 1.6 0.00 0.18 0.18 84 1011.0
20260502213525 13 43 0.0 0.0 0.00 0.18 0.18 86 1011.1
20260502213026 12 39 0.0 0.0 0.00 0.18 0.18 86 1011.1
20260502212526 13 37 0.0 1.6 0.00 0.18 0.18 88 1010.9
20260502212025 13 37 0.0 0.0 0.00 0.18 0.18 85 1011.0
20260502211529 13 44 0.0 0.0 0.00 0.18 0.18 86 1010.8
20260502211025 13 44 0.0 1.6 0.00 0.18 0.18 84 1010.9
20260502210525 13 46 0.0 3.2 0.00 0.18 0.18 83 1011.0
20260502205525 13 36 0.0 1.6 0.00 0.18 0.18 85 1011.1
20260502204525 13 38 0.0 1.6 0.00 0.18 0.18 86 1011.1
20260502204025 13 53 0.0 1.6 0.00 0.18 0.18 85 1011.1
20260502203025 13 52 0.0 1.6 0.00 0.18 0.18 83 1011.2
20260502202525 13 41 0.0 3.2 0.00 0.18 0.18 83 1011.1
20260502202025 13 45 0.0 0.0 0.00 0.18 0.18 84 1011.1
20260502201525 13 49 0.0 3.2 0.00 0.18 0.18 83 1011.0
20260502201025 13 40 0.0 1.6 0.00 0.18 0.18 85 1011.0
20260502200525 13 44 0.0 1.6 0.00 0.18 0.18 84 1011.0
20260502200025 13 47 0.0 1.6 0.00 0.18 0.18 84 1011.2
20260502195525 13 48 0.0 1.6 0.00 0.18 0.18 84 1011.3
20260502195025 13 53 0.0 3.2 0.00 0.18 0.18 83 1011.3
20260502194525 13 43 0.0 0.0 0.00 0.18 0.18 85 1011.3
20260502193525 12 45 0.0 3.2 0.00 0.18 0.18 84 1011.5
20260502193025 12 44 0.0 4.8 0.00 0.18 0.18 85 1011.7
20260502192525 12 47 0.0 4.8 0.00 0.18 0.18 85 1011.7
20260502192025 12 58 0.0 3.2 0.00 0.18 0.18 85 1011.6
20260502191525 12 49 0.0 1.6 0.00 0.18 0.18 87 1011.6
20260502191025 12 43 0.0 0.0 0.00 0.18 0.18 89 1011.7
20260502190525 12 42 0.0 0.0 0.00 0.18 0.18 86 1011.8
20260502190025 12 57 0.0 4.8 0.00 0.18 0.18 86 1011.8
20260502185525 12 50 0.0 4.8 0.00 0.18 0.18 86 1011.8
20260502185025 12 59 0.0 4.8 0.00 0.18 0.18 88 1011.9
20260502184525 12 67 1.6 6.4 0.00 0.18 0.18 86 1012.0
20260502184025 12 55 0.0 6.4 0.00 0.18 0.18 89 1011.9
20260502183525 12 46 0.0 1.6 0.00 0.18 0.18 88 1011.9
20260502182525 12 43 0.0 1.6 0.00 0.18 0.18 89 1012.1
20260502182025 12 51 0.0 1.6 0.00 0.18 0.18 89 1012.2
20260502181525 12 54 0.0 1.6 0.00 0.18 0.18 88 1012.3
20260502164025 11 41 0.0 0.0 0.00 0.15 0.15 94 1013.0
20260502163525 11 56 1.6 4.8 0.00 0.15 0.15 93 1013.2
20260502163025 11 45 0.0 0.0 0.00 0.15 0.15 94 1013.2
20260502162525 11 44 0.0 0.0 0.00 0.15 0.15 94 1013.4
20260502162025 11 38 0.0 0.0 0.00 0.15 0.15 94 1013.4
20260502161525 11 43 0.0 1.6 0.00 0.15 0.15 94 1013.4
20260502161025 11 42 0.0 0.0 0.00 0.15 0.15 94 1013.5
20260502152025 11 43 0.0 1.6 0.05 0.15 0.15 95 1013.3
20260502151525 11 47 0.0 1.6 0.05 0.15 0.15 95 1013.2
20260502151025 11 51 0.0 1.6 0.05 0.15 0.15 94 1013.2
20260502130525 11 45 0.0 0.0 0.00 0.00 0.00 94 1012.4
20260502123525 11 40 0.0 0.0 0.00 0.00 0.00 93 1012.0
20260502123025 11 40 0.0 0.0 0.00 0.00 0.00 92 1011.8
20260502122525 11 39 0.0 0.0 0.00 0.00 0.00 92 1011.8
20260502121025 11 40 0.0 0.0 0.00 0.00 0.00 91 1012.0
20260502120525 11 43 0.0 1.6 0.00 0.00 0.00 91 1012.0
20260502115525 11 45 0.0 3.2 0.00 0.00 0.00 91 1011.9
20260502115025 11 40 0.0 0.0 0.00 0.00 0.00 91 1012.1
20260502114525 11 40 0.0 0.0 0.00 0.00 0.00 90 1012.1
20260502114025 11 40 0.0 0.0 0.00 0.00 0.00 90 1012.1
20260502113525 11 47 0.0 0.0 0.00 0.00 0.00 89 1012.1
20260502113025 11 42 0.0 0.0 0.00 0.00 0.00 88 1012.1
20260502112525 11 43 0.0 0.0 0.00 0.00 0.00 88 1012.2
20260502112025 11 46 0.0 0.0 0.00 0.00 0.00 86 1012.2
20260502111025 12 42 0.0 0.0 0.00 0.00 0.00 86 1012.2
20260502110525 12 40 0.0 0.0 0.00 0.00 0.00 85 1012.2
20260502105525 12 52 0.0 3.2 0.00 0.00 0.00 84 1012.2
20260502105025 12 43 0.0 0.0 0.00 0.00 0.00 85 1012.2
20260502104525 12 46 0.0 1.6 0.00 0.00 0.00 85 1012.2
20260502104025 12 42 0.0 0.0 0.00 0.00 0.00 86 1012.3
20260502103529 12 44 0.0 0.0 0.00 0.00 0.00 86 1012.3
20260502103025 12 32 0.0 0.0 0.00 0.00 0.00 85 1012.3
20260502102525 12 43 0.0 0.0 0.00 0.00 0.00 86 1012.3
20260502102025 12 45 0.0 0.0 0.00 0.00 0.00 86 1012.3
20260502101525 12 45 0.0 0.0 0.00 0.00 0.00 87 1012.3
20260502101025 12 50 0.0 0.0 0.00 0.00 0.00 87 1012.3
20260502091525 11 43 0.0 0.0 0.00 0.00 0.00 91 1012.1
20260502091025 11 36 0.0 0.0 0.00 0.00 0.00 91 1012.2
20260502090525 11 37 0.0 0.0 0.00 0.00 0.00 92 1012.2
20260502071525 11 44 0.0 0.0 0.00 0.00 0.00 92 1011.3
20260502071025 11 44 0.0 0.0 0.00 0.00 0.00 91 1011.2
20260502070525 11 44 0.0 0.0 0.00 0.00 0.00 92 1011.4
20260502070025 11 44 0.0 0.0 0.00 0.00 0.00 91 1011.3
20260502065525 11 44 0.0 0.0 0.00 0.00 0.00 92 1011.4
20260502064525 11 44 0.0 0.0 0.00 0.00 0.00 91 1011.5
20260502064025 11 44 0.0 0.0 0.00 0.00 0.00 91 1011.5
20260502063525 11 44 0.0 0.0 0.00 0.00 0.00 91 1011.5
20260502063025 11 44 0.0 0.0 0.00 0.00 0.00 91 1011.6
20260502062525 11 44 0.0 0.0 0.00 0.00 0.00 91 1011.7
20260502062025 11 44 0.0 0.0 0.00 0.00 0.00 91 1011.6
20260502061525 11 44 0.0 0.0 0.00 0.00 0.00 91 1011.8
20260502061025 11 44 0.0 0.0 0.00 0.00 0.00 91 1011.7
20260502060525 11 44 0.0 0.0 0.00 0.00 0.00 91 1011.7
20260502060025 11 44 0.0 0.0 0.00 0.00 0.00 91 1011.7
20260502055525 11 44 0.0 0.0 0.00 0.00 0.00 91 1011.7
20260502055025 11 44 0.0 0.0 0.00 0.00 0.00 91 1011.6
20260502054525 11 44 0.0 0.0 0.00 0.00 0.00 91 1011.9
20260502053525 11 44 0.0 0.0 0.00 0.00 0.00 91 1011.9
20260502053025 11 44 0.0 0.0 0.00 0.00 0.00 91 1011.9
20260502052525 11 44 0.0 0.0 0.00 0.00 0.00 91 1012.0
20260502052025 11 44 0.0 0.0 0.00 0.00 0.00 91 1012.1
20260502051525 11 44 0.0 0.0 0.00 0.00 0.00 91 1012.1
20260502050025 11 44 0.0 0.0 0.00 0.00 0.00 90 1012.2
20260502045025 11 44 0.0 0.0 0.00 0.00 0.00 90 1012.3
20260502044525 11 44 0.0 0.0 0.00 0.00 0.00 90 1012.3
20260502044025 11 44 0.0 0.0 0.00 0.00 0.00 90 1012.4
20260502043525 11 43 0.0 0.0 0.00 0.00 0.00 90 1012.4
20260502043025 11 43 0.0 0.0 0.00 0.00 0.00 90 1012.4
20260502042525 11 43 0.0 0.0 0.00 0.00 0.00 90 1012.4
20260502042025 11 43 0.0 0.0 0.00 0.00 0.00 89 1012.3
20260502041525 11 43 0.0 0.0 0.00 0.00 0.00 89 1012.5
20260502041025 11 43 0.0 0.0 0.00 0.00 0.00 89 1012.5
20260502040525 11 43 0.0 0.0 0.00 0.00 0.00 89 1012.5
20260502040025 11 43 0.0 0.0 0.00 0.00 0.00 89 1012.5
20260502035027 11 43 0.0 0.0 0.00 0.00 0.00 89 1012.6
20260502033525 11 43 0.0 0.0 0.00 0.00 0.00 89 1012.5
20260502033025 11 43 0.0 0.0 0.00 0.00 0.00 89 1012.5
20260502032525 11 43 0.0 0.0 0.00 0.00 0.00 89 1012.7
20260502032035 11 43 0.0 0.0 0.00 0.00 0.00 89 1012.6
20260502031525 11 44 0.0 0.0 0.00 0.00 0.00 89 1012.7
20260502031026 11 48 0.0 0.0 0.00 0.00 0.00 89 1012.7
20260502030525 11 48 0.0 0.0 0.00 0.00 0.00 89 1012.8
20260502025525 12 48 0.0 0.0 0.00 0.00 0.00 89 1012.9
20260502025025 11 48 0.0 0.0 0.00 0.00 0.00 88 1012.8
20260502024525 11 49 0.0 0.0 0.00 0.00 0.00 88 1012.9
20260502023525 12 48 0.0 0.0 0.00 0.00 0.00 87 1012.8
20260502023025 12 45 0.0 0.0 0.00 0.00 0.00 86 1013.1
20260502022539 12 45 0.0 0.0 0.00 0.00 0.00 86 1013.1
20260502022025 12 45 0.0 0.0 0.00 0.00 0.00 86 1013.2
20260502021526 12 45 0.0 0.0 0.00 0.00 0.00 86 1013.0
20260502021025 12 46 0.0 0.0 0.00 0.00 0.00 86 1013.0
20260502020526 12 46 0.0 0.0 0.00 0.00 0.00 86 1013.1
20260502020026 12 46 0.0 0.0 0.00 0.00 0.00 86 1013.0
20260502015525 12 46 0.0 0.0 0.00 0.00 0.00 86 1013.0
20260502015026 12 46 0.0 0.0 0.00 0.00 0.00 86 1013.0
20260502014026 12 46 0.0 0.0 0.00 0.00 0.00 86 1012.9
20260502013526 12 46 0.0 0.0 0.00 0.00 0.00 86 1012.8
20260502013026 12 46 0.0 0.0 0.00 0.00 0.00 86 1013.0
20260502012526 12 49 0.0 0.0 0.00 0.00 0.00 85 1013.0
20260502012025 12 49 0.0 0.0 0.00 0.00 0.00 85 1013.1
20260502011527 12 49 0.0 0.0 0.00 0.00 0.00 85 1012.9
20260502011026 12 51 0.0 0.0 0.00 0.00 0.00 85 1012.7
20260502010525 12 47 0.0 0.0 0.00 0.00 0.00 85 1012.5